Вернуться в каталог

COSMOS 861

АктивенВоенныеLEO
NORAD 9494·PAYLOAD·🇷🇺 Russia

Запущен Oct 21, 1976 с Baikonur Cosmodrome

Loading…

Ближайшие Пролёты (ближайшие 24 часа)

TLE

СвежийSource: Space-Track

Эпоха: Sep 14, 2026, 05:14 UTC

1 09494U 76104A   26257.21861251 -.00000072  00000-0  15496-4 0  9991
2 09494  64.8592 189.5296 0040933 164.2578 195.9763 13.81727953518240

Отслеживайте COSMOS 861 в реальном времени с AllMySat

Download on the App Store